This is the latest recevied weather packets stored in our database for station/object KE2HVI-13. If no packets are shown the sender has not sent any weather packets the latest 10 day(s).
| Time | Temp. | Humidity | Pressure | Rain* | Wind** | Luminosity | Snow |
|---|---|---|---|---|---|---|---|
| 1788151676 | 70° F | 93% | 759.8 mmHg | 0.01 in | - | - | - |
| 1788151076 | 71° F | 92% | 759.7 mmHg | 0.01 in | - | - | - |
| 1788150466 | 71° F | 92% | 759.7 mmHg | 0.01 in | - | - | - |
| 1788149856 | 71° F | 93% | 759.6 mmHg | 0 in | - | - | - |
| 1788149242 | 72° F | 92% | 759.6 mmHg | 0 in | - | - | - |
| 1788148636 | 72° F | 92% | 759.6 mmHg | 0 in | - | - | - |
| 1788148036 | 73° F | 91% | 759.5 mmHg | 0 in | - | - | - |
| 1788147426 | 73° F | 90% | 759.7 mmHg | 0 in | - | - | - |
| 1788146827 | 73° F | 88% | 759.4 mmHg | 0 in | - | - | - |
| 1788146216 | 73° F | 91% | 759.4 mmHg | 0 in | - | - | - |
| 1788145605 | 73° F | 91% | 759.2 mmHg | 0 in | - | - | - |
| 1788144995 | 73° F | 92% | 759.2 mmHg | 0.01 in | - | - | - |
| 1788144388 | 74° F | 91% | 759.3 mmHg | 0.01 in | - | - | - |
| 1788143786 | 74° F | 92% | 759.6 mmHg | 0.01 in | - | - | - |
| 1788143176 | 74° F | 93% | 759.6 mmHg | 0.01 in | - | - | - |
| 1788142576 | 73° F | 95% | 759.7 mmHg | 0.01 in | - | - | - |
| 1788141966 | 73° F | 95% | 759.8 mmHg | 0.01 in | - | - | - |
| 1788141366 | 74° F | 95% | 759.7 mmHg | 0.01 in | - | - | - |
| 1788140756 | 74° F | 94% | 759.7 mmHg | 0.01 in | - | - | - |
| 1788140156 | 74° F | 94% | 759.5 mmHg | 0.01 in | - | - | - |
| 1788139545 | 74° F | 93% | 759.8 mmHg | 0 in | - | - | - |
| 1788138936 | 74° F | 91% | 759.6 mmHg | 0 in | - | - | - |
| 1788138330 | 74° F | 90% | 759.3 mmHg | 0 in | - | - | - |
| 1788137726 | 75° F | 90% | 759.3 mmHg | 0 in | - | - | - |
| 1788137116 | 75° F | 89% | 759.1 mmHg | 0 in | - | - | - |
* Rain latest hour (hover to see other rain measurements)
** Current wind speed in m/s (hover to see current wind gust speed)